Weather History for Chadron, NE

Change the Weather History Date:

Saturday, October 8, 2011

  Actual Average Record
Temperature  
Mean Temperature 45 °F 51 °F  
Max Temperature 48 °F 67 °F 88 °F (1960)
Min Temperature 42 °F 34 °F 16 °F (1970)
Degree Days  
Heating Degree Days 20 14  
Month to date heating degree days 34 104  
Since 1 July heating degree days 168 315  
Cooling Degree Days 0 0  
Month to date cooling degree days 20 0  
Year to date cooling degree days 902 710  
Moisture  
Dew Point 44 °F    
Average Humidity 85    
Maximum Humidity 100    
Minimum Humidity 70    
Precipitation  
Precipitation 1.21 in 0.04 in 1.21 in (2011)
Month to date precipitation 1.21 0.41  
Year to date precipitation 16.59 16.01  
Sea Level Pressure  
Sea Level Pressure 30.08 in    
Wind  
Wind Speed 13 mph (NNE)    
Max Wind Speed 24 mph    
Max Gust Speed 31 mph    
Visibility 5 miles    
Events Rain    
T = Trace of Precipitation, MM = Missing Value Source: NWS Daily Summary

Daily Weather History Graph

Daily Weather History Graph

Search for Another Location

Airport:

Trip Planner

Search our weather history database for the weather conditions in past years. The results will help you decide how hot, cold, wet, or windy it might be!

Date:

Astronomy

Oct. 08, 2011 Rise Set
Actual Time 6:57 AM MDT 6:21 PM MDT
Civil Twilight 6:29 AM MDT 6:50 PM MDT
Nautical Twilight 5:56 AM MDT 7:22 PM MDT
Astronomical Twilight 5:23 AM MDT 7:55 PM MDT
Moon 4:36 PM MDT (10/8) 3:43 AM MDT (10/8)
Length of Visible Light 12h 21m
Length of Day
11h 24m
Waxing Gibbous, 90% of the Moon is Illuminated
Oct 8
Waxing Gibbous
Oct 11
Full
Oct 19
Last Quarter
Oct 26
New
Nov 2
First Quarter

Hourly Weather History & Observations

Time (MDT) Temp. Windchill Dew Point Humidity Pressure Visibility Wind Dir Wind Speed Gust Speed Precip Events Conditions
1:53 AM 43.0 °F 38.8 °F 35.1 °F 74% 29.99 in 10.0 mi SW 6.9 mph - N/A   Clear
2:53 AM 45.0 °F 41.2 °F 36.0 °F 71% 29.97 in 10.0 mi WSW 6.9 mph - N/A   Scattered Clouds
3:53 AM 45.0 °F 40.1 °F 36.0 °F 71% 29.96 in 10.0 mi WSW 9.2 mph - N/A   Scattered Clouds
4:53 AM 44.1 °F 41.5 °F 37.0 °F 76% 29.99 in 10.0 mi SW 4.6 mph - N/A   Clear
7:53 AM 45.0 °F - 37.9 °F 76% 30.06 in 10.0 mi Calm Calm - 0.00 in Rain Light Rain
8:43 AM 44.6 °F 40.2 °F 39.2 °F 81% 30.03 in 10.0 mi North 8.1 mph - 0.00 in   Overcast
8:53 AM 46.0 °F 41.9 °F 39.0 °F 76% 30.06 in 10.0 mi NNE 8.1 mph - 0.00 in   Overcast
9:53 AM 48.0 °F - 42.1 °F 80% 30.08 in 10.0 mi NE 16.1 mph - N/A   Overcast
10:53 AM 48.0 °F - 45.0 °F 89% 30.09 in 3.0 mi NE 13.8 mph - 0.00 in Rain Light Rain
11:14 AM 48.2 °F - 46.4 °F 93% 30.05 in 2.0 mi NNE 16.1 mph - 0.03 in Rain Rain
11:17 AM 48.2 °F - 46.4 °F 93% 30.05 in 1.8 mi NNE 13.8 mph - 0.03 in Rain Rain
11:29 AM 48.2 °F - 46.4 °F 93% 30.04 in 3.0 mi NE 16.1 mph 24.2 mph 0.04 in Rain Light Rain
11:39 AM 48.2 °F - 46.4 °F 93% 30.04 in 2.5 mi NNE 16.1 mph 23.0 mph 0.06 in Rain Light Rain
11:46 AM 48.2 °F - 46.4 °F 93% 30.05 in 2.0 mi NE 12.7 mph 21.9 mph 0.06 in Rain Light Rain
12:09 PM 48.2 °F - 46.4 °F 93% 30.04 in 1.8 mi NNE 15.0 mph - 0.01 in Rain Light Rain
12:39 PM 48.2 °F - 46.4 °F 93% 30.04 in 2.0 mi NNE 16.1 mph 23.0 mph 0.07 in Rain Rain
12:46 PM 48.2 °F - 46.4 °F 93% 30.03 in 1.8 mi NNE 16.1 mph 26.5 mph 0.08 in Rain Rain
12:53 PM 48.0 °F - 46.0 °F 93% 30.07 in 1.5 mi NNE 20.7 mph 26.5 mph 0.10 in Rain Rain
1:25 PM 48.2 °F - 46.4 °F 93% 30.02 in 2.0 mi NNE 16.1 mph 26.5 mph 0.05 in   Overcast
1:42 PM 46.4 °F 38.5 °F 46.4 °F 100% 30.03 in 1.8 mi NNE 21.9 mph 27.6 mph 0.07 in Rain Light Rain
1:53 PM 46.9 °F - 46.0 °F 97% 30.08 in 1.8 mi North 19.6 mph 26.5 mph 0.10 in Rain Rain
2:00 PM 46.4 °F 39.8 °F 46.4 °F 100% 30.04 in 2.0 mi North 16.1 mph 26.5 mph 0.02 in Rain Rain
2:53 PM 46.9 °F - 46.0 °F 97% 30.10 in 2.5 mi North 19.6 mph 31.1 mph 0.16 in Rain Rain
3:53 PM 46.9 °F - 45.0 °F 93% 30.10 in 1.8 mi North 17.3 mph 28.8 mph 0.13 in Rain Rain
4:02 PM 46.4 °F 39.2 °F 44.6 °F 93% 30.07 in 2.0 mi North 18.4 mph 27.6 mph 0.02 in Rain Rain
4:51 PM 46.4 °F 39.2 °F 44.6 °F 93% 30.09 in 3.0 mi North 18.4 mph 24.2 mph 0.13 in Rain Rain
4:53 PM 46.0 °F 38.8 °F 44.1 °F 93% 30.14 in 3.0 mi North 18.4 mph 26.5 mph 0.13 in Rain Rain
5:00 PM 46.4 °F 38.5 °F 44.6 °F 93% 30.10 in 4.0 mi NNE 21.9 mph 28.8 mph 0.01 in Rain Light Rain
6:42 PM 46.4 °F 40.1 °F 44.6 °F 93% 30.11 in 10.0 mi North 15.0 mph 25.3 mph 0.01 in Rain Light Rain
6:53 PM 46.0 °F 39.3 °F 44.1 °F 93% 30.17 in 10.0 mi NNE 16.1 mph 24.2 mph 0.01 in Rain Light Rain
7:10 PM 46.4 °F 39.5 °F 44.6 °F 93% 30.13 in 5.0 mi NNE 17.3 mph 24.2 mph 0.03 in Rain Rain
8:16 PM 46.4 °F 38.7 °F 44.6 °F 93% 30.15 in 8.0 mi NNE 20.7 mph 31.1 mph 0.01 in Rain Light Rain
8:37 PM 46.4 °F 39.0 °F 44.6 °F 93% 30.15 in 5.0 mi NNE 19.6 mph 26.5 mph 0.02 in Rain Light Rain
8:53 PM 45.0 °F 37.1 °F 43.0 °F 93% 30.19 in 5.0 mi NNE 19.6 mph 27.6 mph 0.03 in Rain Light Rain
9:53 PM 45.0 °F 37.9 °F 44.1 °F 97% 30.20 in 5.0 mi NNE 16.1 mph 24.2 mph 0.05 in Rain Light Rain
10:53 PM 46.0 °F 39.9 °F 44.1 °F 93% 30.21 in 4.0 mi NNE 13.8 mph 21.9 mph 0.07 in Rain Rain
11:50 PM 44.6 °F 38.1 °F 44.6 °F 100% 30.17 in 2.5 mi NNE 13.8 mph - 0.11 in Rain Rain